STARLINK-35362, 65888

Orbit data source: Space-Track

STARLINK-35362, 65888 is a payload satellite owned by SpaceX/Seattle (US) in LEO that was launched on Tue, 07 Oct 2025 UTC via an FALCON 9 launch vehicle from the Air Force Eastern Test Range (AFETR). Payload-class satellites include a variety of spacecraft equipped with specific instruments for various scientific and technological missions. These include communications satellites like Starlink; space stations such as the ISS; scientific satellites like the Hubble; Earth observation satellites from companies like Planet Labs, Umbra, and HawkEye 360; GPS; miniature CubeSats for education and research; and military/defense satellites.

Loading next visibility...
Identifier
65888, 2025-224G
Orbit
LEO
Country
Flag of USUS
Related business
Manufacturer
SpaceX/Seattle
Mission
Operational spacecraft
Bus & Motor
STARLINK V2MO, Unknown motor
Mass
575 kg wet, ~530 kg dry
Launch date (UTC)
2025-10-07 (2 months ago)
Launch vehicle
FALCON 9
Launch site
Air Force Eastern Test Range (AFETR)
Object type
Payload
Rocket body
Debris
Shape & HBR
Unknown shape, 17.7 m
Radar Cross Section
RCS unknown

Expand to show TLE details & history
Last TLE update: 1 day ago

TLE from 1 day ago
0 STARLINK-35362
1 65888U 25224G   25338.60224845  .00052016  00000-0  17560-2 0  9997
2 65888  53.1608  93.1910 0001225  73.3764 286.7371 15.30202880 10265
Epoch: 2025-12-04T14:27Z
TLE epoch observation values (Epoch: 2025-12-04T14:27:14.266Z)
Latitude
-0.00002°
Longitude
162.72521°
Altitude
475.865 km
Speed
7.629 km/s
True Right ascension
06h 12m 45s
True Declination
0° 00' 00"
Sunlit
Object was in full shadow at epoch
Visualization orbit readout
Latitude
Unknown
Longitude
Unknown
Altitude
Unknown
Speed
Unknown
Apparent Right ascension
Unknown
Apparent Declination
Unknown
Sunlit
N/A
Visualization observer readout
Local Sidereal Time
12:04:48
Azimuth
Unknown
Elevation
Unknown
Doppler factor
Unknown
Orbital elements
Apogee altitude
476.302 km
Perigee altitude
474.623 km
Semi-major axis
6,853.6 km
Eccentricity
0.00012
Inclination
53.1608°
RAAN
93.191°
Arg. of periapsis
73.3764°
True anomaly
286.72366°
Mean anomaly
286.7371°
Eccentric anomaly
286.73038°
Mean motion
3.8253 °/min
Orbital period
94.11 mins
BSTAR
0.001756
Loading maneuver chart data...
Computing Atmospheric mass density...
Loading historical data...
Loading historical data...
Loading historical data...
Loading historical data...
Loading historical data...
Loading historical data...
Loading historical data...

Documentation

Showing up to 5 results
|